TimeCDT,TemperatureF,Dew PointF,Humidity,Sea Level PressureIn,VisibilityMPH,Wind Direction,Wind SpeedMPH,Gust SpeedMPH,PrecipitationIn,Events,Conditions,WindDirDegrees,DateUTC
12:53 AM,64.0,62.1,93,30.16,10.0,Calm,Calm,-,N/A,,Partly Cloudy,0,2013-09-12 05:53:00
1:53 AM,61.0,60.1,97,30.17,10.0,NW,3.5,-,N/A,,Clear,310,2013-09-12 06:53:00
2:53 AM,61.0,59.0,93,30.16,10.0,NNW,4.6,-,N/A,,Clear,330,2013-09-12 07:53:00
3:53 AM,59.0,57.9,96,30.17,10.0,Calm,Calm,-,N/A,,Clear,0,2013-09-12 08:53:00
4:53 AM,57.0,55.9,96,30.17,9.0,Calm,Calm,-,N/A,,Clear,0,2013-09-12 09:53:00
5:53 AM,57.9,57.0,97,30.19,8.0,NNW,4.6,-,N/A,,Clear,330,2013-09-12 10:53:00
6:53 AM,60.1,55.9,86,30.20,10.0,NW,4.6,-,N/A,,Clear,320,2013-09-12 11:53:00
7:53 AM,60.1,55.0,83,30.23,10.0,NNE,3.5,-,N/A,,Clear,30,2013-09-12 12:53:00
8:53 AM,64.0,53.1,67,30.25,10.0,ENE,5.8,-,N/A,,Clear,70,2013-09-12 13:53:00
9:53 AM,68.0,50.0,52,30.26,10.0,ENE,10.4,-,N/A,,Clear,70,2013-09-12 14:53:00
10:53 AM,73.0,48.0,41,30.26,10.0,ENE,10.4,-,N/A,,Clear,70,2013-09-12 15:53:00
11:53 AM,77.0,48.0,36,30.26,10.0,ENE,9.2,-,N/A,,Clear,70,2013-09-12 16:53:00
12:53 PM,77.0,46.9,34,30.25,10.0,ENE,8.1,-,N/A,,Clear,70,2013-09-12 17:53:00
1:53 PM,78.1,46.9,33,30.25,10.0,ENE,9.2,-,N/A,,Clear,70,2013-09-12 18:53:00
2:53 PM,80.1,46.0,30,30.22,10.0,ENE,11.5,16.1,N/A,,Clear,60,2013-09-12 19:53:00
3:53 PM,79.0,46.9,32,30.21,10.0,ENE,8.1,-,N/A,,Clear,70,2013-09-12 20:53:00
4:53 PM,80.1,48.0,32,30.19,10.0,NNE,8.1,-,N/A,,Clear,30,2013-09-12 21:53:00
5:53 PM,79.0,48.0,34,30.19,10.0,NE,4.6,-,N/A,,Clear,50,2013-09-12 22:53:00
6:53 PM,73.0,50.0,44,30.20,10.0,ENE,5.8,-,N/A,,Clear,60,2013-09-12 23:53:00
7:53 PM,68.0,50.0,52,30.21,10.0,NE,4.6,-,N/A,,Clear,50,2013-09-13 00:53:00
8:53 PM,64.9,48.9,56,30.22,10.0,Calm,Calm,-,N/A,,Clear,0,2013-09-13 01:53:00
9:53 PM,59.0,53.1,81,30.23,10.0,Calm,Calm,-,N/A,,Clear,0,2013-09-13 02:53:00
10:53 PM,55.9,51.1,84,30.22,10.0,Calm,Calm,-,N/A,,Clear,0,2013-09-13 03:53:00
11:53 PM,55.0,50.0,83,30.22,10.0,Calm,Calm,-,N/A,,Clear,0,2013-09-13 04:53:00